Weather History for KVLL - August, 2014

Change the Weather History Date:

Thursday, August 21, 2014

  Actual Average (KDET) Record (KDET)
Temperature  
Mean Temperature 73 °F -  
Max Temperature 81 °F 79 °F 100 °F (1955)
Min Temperature 65 °F 62 °F 47 °F (1950)
Cooling Degree Days 8    
Growing Degree Days 23 (Base 50)    
Moisture  
Dew Point 65 °F    
Average Humidity 75    
Maximum Humidity 92    
Minimum Humidity 60    
Precipitation  
Precipitation 0.00 in - - ()
Sea Level Pressure  
Sea Level Pressure 29.99 in    
Wind  
Wind Speed 3 mph (ESE)    
Max Wind Speed 9 mph    
Max Gust Speed -    
Visibility 10 miles    
Events Rain    
Averages and records for this station are not official NWS values.
T = Trace of Precipitation, MM = Missing Value Source: NWS Daily Summary

Daily Weather History Graph

Daily Weather History Graph

Search for Another Location

Airport or City:

Trip Planner

Search our weather history database for the weather conditions in past years. The results will help you decide how hot, cold, wet, or windy it might be!

Date:

Astronomy

Aug. 21, 2014 Rise Set
Actual Time 6:45 AM EDT 8:24 PM EDT
Civil Twilight 6:16 AM EDT 8:54 PM EDT
Nautical Twilight 5:39 AM EDT 9:30 PM EDT
Astronomical Twilight 5:01 AM EDT 10:09 PM EDT
Moon 3:13 AM EDT (8/21) 5:54 PM EDT (8/21)
Length of Visible Light 14h 38m
Length of Day
13h 39m
Waning Crescent, 13% of the Moon is Illuminated
Aug 21
Waning Crescent
Aug 25
New
Sep 2
First Quarter
Sep 8
Full
Sep 15
Last Quarter

Hourly Weather History & Observations

Time (EDT) Temp. Heat Index Dew Point Humidity Pressure Visibility Wind Dir Wind Speed Gust Speed Precip Events Conditions
12:15 AM 71.6 °F - 63.5 °F 76% 29.98 in 10.0 mi West 4.6 mph - N/A   Clear
12:35 AM 71.2 °F - 63.5 °F 76% 29.98 in 10.0 mi WSW 4.6 mph - N/A   Clear
12:55 AM 70.7 °F - 63.5 °F 78% 29.98 in 10.0 mi WSW 4.6 mph - N/A   Clear
1:15 AM 70.3 °F - 63.5 °F 79% 29.99 in 10.0 mi WSW 4.6 mph - N/A   Clear
1:35 AM 69.8 °F - 63.1 °F 79% 29.99 in 10.0 mi WSW 3.5 mph - N/A   Clear
1:55 AM 69.8 °F - 63.3 °F 80% 29.98 in 10.0 mi Calm Calm - N/A   Clear
2:15 AM 69.8 °F - 63.1 °F 79% 29.98 in 10.0 mi West 3.5 mph - N/A   Clear
2:34 AM 69.1 °F - 63.1 °F 81% 29.97 in 10.0 mi West 3.5 mph - N/A   Clear
2:55 AM 69.4 °F - 63.1 °F 80% 29.97 in 10.0 mi Calm Calm - N/A   Clear
3:15 AM 68.5 °F - 63.1 °F 83% 29.97 in 10.0 mi WSW 4.6 mph - N/A   Clear
3:34 AM 68.5 °F - 63.0 °F 82% 29.97 in 10.0 mi WNW 3.5 mph - N/A   Clear
3:55 AM 68.2 °F - 63.0 °F 83% 29.97 in 10.0 mi West 4.6 mph - N/A   Clear
4:15 AM 68.0 °F - 63.1 °F 84% 29.97 in 10.0 mi Calm Calm - N/A   Clear
4:34 AM 67.5 °F - 63.0 °F 85% 29.97 in 10.0 mi Calm Calm - N/A   Clear
4:55 AM 67.1 °F - 62.8 °F 86% 29.97 in 10.0 mi Calm Calm - N/A   Scattered Clouds
5:15 AM 66.7 °F - 62.8 °F 87% 29.97 in 10.0 mi Calm Calm - N/A   Clear
5:34 AM 66.7 °F - 62.2 °F 85% 29.97 in 10.0 mi Calm Calm - N/A   Clear
5:55 AM 66.4 °F - 62.2 °F 86% 29.98 in 10.0 mi Calm Calm - N/A   Clear
6:15 AM 66.4 °F - 62.4 °F 87% 29.98 in 10.0 mi Calm Calm - N/A   Clear
6:35 AM 65.7 °F - 62.2 °F 89% 29.98 in 10.0 mi Calm Calm - N/A   Clear
6:55 AM 65.5 °F - 62.4 °F 90% 29.98 in 10.0 mi Calm Calm - N/A   Clear
7:14 AM 65.8 °F - 62.6 °F 89% 29.99 in 10.0 mi Calm Calm - N/A   Clear
7:35 AM 67.1 °F - 62.6 °F 85% 30.00 in 10.0 mi Calm Calm - N/A   Clear
7:55 AM 67.5 °F - 62.6 °F 84% 30.00 in 10.0 mi Calm Calm - N/A   Clear
8:14 AM 68.2 °F - 62.8 °F 83% 30.00 in 10.0 mi NE 4.6 mph - N/A   Clear
8:35 AM 68.5 °F - 62.2 °F 80% 30.00 in 10.0 mi NE 5.8 mph - N/A   Clear
8:55 AM 68.7 °F - 62.4 °F 80% 30.01 in 10.0 mi NE 4.6 mph - N/A   Clear
9:14 AM 69.8 °F - 62.8 °F 78% 30.01 in 10.0 mi ENE 4.6 mph - N/A   Clear
9:35 AM 70.3 °F - 62.6 °F 76% 30.00 in 10.0 mi ENE 5.8 mph - N/A   Clear
9:55 AM 71.6 °F - 63.0 °F 74% 30.02 in 10.0 mi East 4.6 mph - N/A   Clear
10:15 AM 72.7 °F - 63.5 °F 73% 30.02 in 10.0 mi ENE 4.6 mph - N/A   Clear
10:35 AM 73.6 °F - 63.7 °F 71% 30.02 in 10.0 mi East 5.8 mph - N/A   Clear
10:54 AM 74.3 °F - 63.5 °F 69% 30.03 in 10.0 mi Calm Calm - N/A   Scattered Clouds
11:15 AM 74.3 °F - 63.1 °F 68% 30.04 in 10.0 mi Calm Calm - N/A   Overcast
11:35 AM 75.4 °F - 63.3 °F 66% - 10.0 mi NE 4.6 mph - N/A   Overcast
11:55 AM 75.7 °F - 63.5 °F 66% 30.03 in 10.0 mi SE 3.5 mph - N/A   Overcast
12:15 PM 74.7 °F - 63.5 °F 68% 30.03 in 10.0 mi SE 3.5 mph - N/A   Overcast
12:35 PM 75.2 °F - 64.2 °F 69% 30.03 in 10.0 mi SE 3.5 mph - N/A   Overcast
12:55 PM 76.8 °F - 64.6 °F 66% 30.03 in 10.0 mi East 5.8 mph - N/A   Overcast
1:15 PM 77.4 °F - 65.7 °F 67% 30.02 in 10.0 mi SSE 3.5 mph - N/A   Mostly Cloudy
1:34 PM 77.0 °F - 64.9 °F 66% 30.02 in 10.0 mi East 4.6 mph - N/A   Mostly Cloudy
1:55 PM 77.9 °F - 65.1 °F 65% 30.01 in 10.0 mi SE 4.6 mph - N/A   Overcast
2:15 PM 80.1 °F 82.1 °F 65.8 °F 62% 30.00 in 10.0 mi SSE 4.6 mph - N/A   Overcast
2:35 PM 78.8 °F - 65.7 °F 64% 30.00 in 10.0 mi South 3.5 mph - N/A   Mostly Cloudy
2:55 PM 79.9 °F - 65.8 °F 62% 30.00 in 10.0 mi ESE 5.8 mph - N/A   Mostly Cloudy
3:15 PM 79.2 °F - 65.7 °F 63% 29.99 in 10.0 mi ESE 3.5 mph - N/A   Overcast
3:34 PM 78.8 °F - 66.2 °F 65% 29.99 in 10.0 mi Calm Calm - N/A   Overcast
3:55 PM 79.2 °F - 66.6 °F 65% 29.99 in 10.0 mi ESE 3.5 mph - N/A   Overcast
4:15 PM 80.6 °F 82.7 °F 66.2 °F 61% 29.99 in 10.0 mi Calm Calm - N/A   Mostly Cloudy
4:35 PM 80.4 °F 82.7 °F 66.9 °F 63% 29.98 in 10.0 mi Calm Calm - N/A   Mostly Cloudy
4:55 PM 81.1 °F 83.7 °F 67.6 °F 63% 29.98 in 10.0 mi ESE 3.5 mph - N/A   Mostly Cloudy
5:15 PM 81.0 °F 83.4 °F 67.3 °F 63% 29.98 in 10.0 mi ESE 3.5 mph - N/A   Mostly Cloudy
5:35 PM 81.1 °F 83.7 °F 67.5 °F 63% 29.98 in 10.0 mi WSW 3.5 mph - N/A   Mostly Cloudy
5:55 PM 81.9 °F 84.2 °F 66.7 °F 60% 29.98 in 10.0 mi Calm Calm - N/A   Mostly Cloudy
6:15 PM 81.3 °F 83.6 °F 66.9 °F 61% 29.98 in 10.0 mi Calm Calm - N/A   Mostly Cloudy
6:35 PM 81.1 °F 83.5 °F 66.9 °F 62% 29.98 in 10.0 mi WSW 3.5 mph - N/A   Scattered Clouds
6:55 PM 81.0 °F 83.4 °F 67.3 °F 63% 29.98 in 10.0 mi Calm Calm - N/A   Mostly Cloudy
7:14 PM 80.6 °F 83.1 °F 67.3 °F 64% 29.97 in 10.0 mi Calm Calm - N/A   Overcast
7:35 PM 79.7 °F - 68.0 °F 67% 29.97 in 10.0 mi Calm Calm - N/A   Overcast
7:55 PM 79.2 °F - 68.0 °F 69% 29.97 in 10.0 mi Calm Calm - N/A   Scattered Clouds
8:14 PM 79.0 °F - 68.2 °F 69% 29.97 in 10.0 mi Calm Calm - N/A   Scattered Clouds
8:35 PM 79.0 °F - 68.4 °F 70% 29.97 in 10.0 mi Calm Calm - N/A   Overcast
8:55 PM 78.8 °F - 68.4 °F 70% 29.97 in 7.0 mi ENE 5.8 mph - N/A   Scattered Clouds
9:15 PM 78.3 °F - 68.2 °F 71% 29.99 in 10.0 mi ENE 4.6 mph - N/A   Mostly Cloudy
9:35 PM 77.9 °F - 68.2 °F 72% 29.99 in 10.0 mi ENE 3.5 mph - N/A   Overcast
9:55 PM 77.2 °F - 68.4 °F 74% 30.00 in 10.0 mi Calm Calm - N/A   Mostly Cloudy
10:15 PM 76.3 °F - 70.5 °F 82% 30.00 in 5.0 mi West 9.2 mph - N/A Rain Heavy Rain
10:35 PM 73.0 °F - 69.4 °F 88% 30.01 in 7.0 mi WNW 3.5 mph - N/A Rain Rain
10:55 PM 72.5 °F - 69.3 °F 90% 30.02 in 5.0 mi North 3.5 mph - N/A Rain Rain
11:15 PM 72.5 °F - 69.6 °F 91% 30.01 in 5.0 mi NE 4.6 mph - N/A Rain Light Rain
11:35 PM 72.3 °F - 69.8 °F 92% 30.01 in 7.0 mi ENE 4.6 mph - N/A   Overcast
11:55 PM 71.6 °F - 69.1 °F 92% 30.00 in 5.0 mi ENE 9.2 mph - N/A   Overcast